Flag for Germany Weather past 2 weeks in Erftstadt, North Rhine-Westphalia, Germany

Now
64 °F

Broken clouds.


Feels Like: 64 °F
Forecast: 56 / 69 °F
Wind: 8 mph from West

Location: Noervenich

Current Time: Aug 29, 2014 at 2:41:03 PM

Latest Report: Aug 29, 2014 at 1:20 PM


Visibility: N/A

Pressure: 30.04 "Hg

Humidity: 73%

Dew point: 55 °F

Location of ErftstadtLocation

Historic Weather in Erftstadt — Graph

°F

Erftstadt temperature yesterday

Maximum temperature yesterday: 72 °F (at 12:20 PM)
Minimum temperature yesterday: 55 °F (at 3:20 AM)
Average temperature yesterday: 64 °F

Past Weeks' High & Low Weather Summary

 TemperatureHumidityPressure
High72 °F (Aug 28, 12:20 PM)100% (Aug 20, 9:20 PM)30.12 "Hg (Aug 20, 9:20 PM)
Low45 °F (Aug 20, 6:20 AM)40% (Aug 21, 3:20 PM)29.62 "Hg (Aug 26, 4:20 AM)
Average58 °F79%29.93 "Hg
* Reported Aug 14 1:20 PM — Aug 29 1:20 PM, Erftstadt, Weather by CustomWeather, © 2014

Note: Actual official high and low records may vary slightly from our data, if they occured in-between our weather recording intervals... More about our weather records

Advertising

Erftstadt weather history for previous 24 hours

 ConditionsComfort  
Time TempWeatherWind HumidityBarometerVisibility
1:20 PM
Aug 29
64 °FBroken clouds.8 mph73%30.04 "HgN/A
12:20 PM64 °FPartly sunny.8 mph78%30.01 "HgN/A
11:20 AM66 °FBroken clouds.6 mph78%30.01 "HgN/A
10:20 AM66 °FBroken clouds.7 mph73%30.01 "HgN/A
9:20 AM61 °FBroken clouds.3 mph88%30.01 "HgN/A
8:20 AM61 °FPartly sunny.2 mph83%30.01 "HgN/A
7:20 AM57 °FPassing clouds.5 mph94%29.98 "HgN/A
6:20 AM57 °FPassing clouds.3 mph94%29.98 "HgN/A
5:20 AM59 °FPassing clouds.No wind88%29.98 "HgN/A
4:20 AM61 °FPassing clouds.3 mph88%29.98 "HgN/A
3:20 AM61 °FPassing clouds.2 mph94%29.98 "HgN/A
2:20 AM63 °FPartly cloudy.3 mph88%29.98 "HgN/A
1:20 AM63 °FSprinkles. Partly cloudy.3 mph94%29.98 "HgN/A
12:20 AM64 °FSprinkles. Partly cloudy.9 mph88%29.98 "HgN/A
11:20 PM
Aug 28
64 °FPartly cloudy.5 mph88%29.98 "HgN/A
10:20 PM64 °FPartly cloudy.2 mph83%29.95 "HgN/A
9:20 PM66 °FBroken clouds.3 mph83%29.95 "HgN/A
8:20 PM68 °FPartly sunny.2 mph78%29.95 "HgN/A
7:20 PM70 °FScattered clouds.3 mph73%29.95 "HgN/A
6:20 PM70 °FPartly sunny.5 mph73%29.95 "HgN/A
5:20 PM70 °FPartly sunny.6 mph69%29.98 "HgN/A
4:20 PM70 °FPartly sunny.5 mph69%29.98 "HgN/A
3:20 PM70 °FPartly sunny.8 mph69%29.98 "HgN/A
2:20 PM72 °FPartly sunny.6 mph61%29.98 "HgN/A
Weather by CustomWeather, © 2014

See weather overviewHow to use our weather pages